Notices

What's New in latest Release from April 7th, 2021:

- Updated Glossary, including Speed of Maximum Gust, and Total Hourly Precipitation

- Updated national and regional climate services offices contacts and prices information

- Addition of station inventory lists for 1981-2010, 1971-2000, and 1961-1990 Normals.

If you haven't already, please take our survey and provide feedback about our website: https://eccc.sondage-survey.ca/f/LanguageSelection.aspx?s=442ca660-fcf1-47c0-95a9-59707d6fd709

Hourly Data Report for November 30, 2003

TORONTO CITY
ONTARIO

43°40'00.000" N
79°24'00.000" W
112.50 m
6158355
71508
XTO

Download Data

Hourly Data (November 2003)
Hourly Data Report for November 30, 2003
TIME
LST
Temp Definition
°C
Dew Point Definition
°C
Rel Hum Definition
%
Precip. Amount Definition
mm

Wind Dir Definition
10's deg

Wind Spd Definition
km/h
Visibility Definition
km
Stn Press Definition
kPa
Hmdx Definition


Wind Chill Definition


Weather Definition


00:00 2.4 -0.8 79   LegendMM LegendMM LegendMM 99.29     LegendNANA
01:00 1.6 -1.2 82   LegendMM LegendMM LegendMM 99.24     LegendNANA
02:00 1.6 -1.4 80   LegendMM LegendMM LegendMM 99.24     LegendNANA
03:00 2.1 -1.6 76   LegendMM LegendMM LegendMM 99.22     LegendNANA
04:00 2.4 -1.5 75   LegendMM LegendMM LegendMM 99.19     LegendNANA
05:00 2.5 -1.6 74   LegendMM LegendMM LegendMM 99.20     LegendNANA
06:00 2.9 -1.7 72   LegendMM LegendMM LegendMM 99.24     LegendNANA
07:00 3.0 -1.6 72   LegendMM LegendMM LegendMM 99.29     LegendNANA
08:00 3.0 -1.4 73   LegendMM LegendMM LegendMM 99.38     LegendNANA
09:00 3.0 -1.6 72   LegendMM LegendMM LegendMM 99.43     LegendNANA
10:00 3.4 -1.3 71   LegendMM LegendMM LegendMM 99.49     LegendNANA
11:00 4.3 -0.8 69   LegendMM LegendMM LegendMM 99.45     LegendNANA
12:00 5.5 -0.4 66   LegendMM LegendMM LegendMM 99.38     LegendNANA
13:00 6.4 -0.4 62   LegendMM LegendMM LegendMM 99.35     LegendNANA
14:00 7.4 0.2 60   LegendMM LegendMM LegendMM 99.31     LegendNANA
15:00 7.7 0.7 61   LegendMM LegendMM LegendMM 99.26     LegendNANA
16:00 7.5 1.1 64   LegendMM LegendMM LegendMM 99.24     LegendNANA
17:00 6.8 1.7 70   LegendMM LegendMM LegendMM 99.21     LegendNANA
18:00 6.0 2.1 76   LegendMM LegendMM LegendMM 99.18     LegendNANA
19:00 6.2 3.0 80   LegendMM LegendMM LegendMM 99.01     LegendNANA
20:00 6.9 3.0 76   LegendMM LegendMM LegendMM 99.00     LegendNANA
21:00 7.8 2.5 69   LegendMM LegendMM LegendMM 98.88     LegendNANA
22:00 8.2 2.2 66   LegendMM LegendMM LegendMM 98.81     LegendNANA
23:00 7.8 1.9 66   LegendMM LegendMM LegendMM 98.81     LegendNANA

Notes on Data Quality.

Legend

  • E = Estimated
  • M = Missing
  • NA = Not Available*
  • [empty] = Indicates an unobserved value
Date modified: